Forside
METAR-TAF:

METAR-TAF

Lufthavne :

Porter County Municipal Airport

Valparaiso, Indiana, USA

Breddekreds: 41-27-11N, længdekreds: 086-59-53W, højde: 234 m

Aktuelle vejr

Denne rapport blev lavet for 1 time og 12 minutter siden, kl. 05:56 UTC
Vind 4 kt fra sydvest
Temperatur 2°C
Fugtighed 80%
Tryk 1018 hPa
Sigt: 16.1 km
skyfri

METAR: KVPZ 290556Z AUTO 23004KT 10SM CLR 02/M01 A3007 RMK AO2 SLP189 T00171011 10044 20017 400831039 56008

Tid: 01:08 (07:08 UTC)


TAF: fraværende

Vejrobservationer og prognoser fra mere end 4000 lufthavne (METAR og TAF).

De gule og røde prikker repræsenterer de meteorologiske stationer.

Flyt musen over at se navnet på stationen.

Så klik over at se vejr observationer og prognoser.

At skifte det kort: Klik på de grønne knapper med et sort kors for at zoome ind; på den grønne knap med en bindestreg for at zoome ud; eller på de grønne pile for tilstødende kort.


METAR-TAF: